Stations météo

réclame
Mon MeteoGroup
Marham, Grande-Bretagne (3482): Température de l'air & dewpoint: 08.12.2019 05:00:00 - 14.12.2019 05:00:00 (GMT)Marham, Grande-Bretagne (3482): Température de l'air -20cm & Température de l'air -100cm: 08.12.2019 05:00:00 - 14.12.2019 05:00:00 (GMT)Marham, Grande-Bretagne (3482): Vitesse du vent & gusts: 08.12.2019 05:00:00 - 14.12.2019 05:00:00 (GMT)Marham, Grande-Bretagne (3482): Direction du vent: 08.12.2019 05:00:00 - 14.12.2019 05:00:00 (GMT)Marham, Grande-Bretagne (3482): reduced air pressure: 08.12.2019 05:00:00 - 14.12.2019 05:00:00 (GMT)Marham, Grande-Bretagne (3482): visibility: 08.12.2019 05:00:00 - 14.12.2019 05:00:00 (GMT)Marham, Grande-Bretagne (3482): Quantités de précipitations: 08.12.2019 05:00:00 - 14.12.2019 05:00:00 (GMT)
Date & Time tt [°C] td [°C] tt -20cm [°C] tt -100cm [°C] ff [km/h] ff [knt] fx [km/h] fx [knt] dd ppp [hPa] vv [km] rr [mm]
14.12.2019 05:00:00 3,3 1,7 - - 24 13 - - WSW 982,5 10 0,0
14.12.2019 04:00:00 3,2 1,6 - - 22 12 - - SW 981,7 22 0,0
14.12.2019 03:00:00 4,1 1,7 - - 26 14 - - WSW 981,0 20 0,0
14.12.2019 02:00:00 3,7 1,7 - - 16 9 - - SW 980,3 17 0,0
14.12.2019 01:00:00 4,7 2,5 - - 18 10 - - SW 979,8 15 0,0
14.12.2019 00:00:00 5,3 2,4 - - 15 8 - - SW 979,7 10 0,0
13.12.2019 23:00:00 5,2 2,3 - - 16 9 - - SW 979,9 17 0,0
13.12.2019 22:00:00 5,1 1,7 - - 24 13 - - SW 979,9 10 0,0
13.12.2019 21:00:00 4,4 1,5 - - 15 8 - - S 979,7 18 0,0
13.12.2019 20:00:00 5,3 1,7 - - 21 11 - - SSW 980,7 10 0,0
13.12.2019 19:00:00 5,7 2,1 - - 26 14 - - SW 980,7 17 0,0
13.12.2019 18:00:00 6,0 2,7 - - 21 11 - - SW 980,8 17 0,0
13.12.2019 17:00:00 6,6 3,2 - - 26 14 - - WSW 980,9 10 0,0
13.12.2019 16:00:00 7,0 3,6 - - 28 15 46 25 SW 980,6 10 0,0
13.12.2019 15:00:00 6,9 3,6 - - 29 16 50 27 WSW 980,1 10 0,0
13.12.2019 14:00:00 8,2 4,7 - - 22 12 52 28 WSW 979,6 10 0,0
13.12.2019 13:00:00 7,5 4,6 - - 28 15 - - WSW 979,1 20 0,0
13.12.2019 12:00:00 7,0 4,3 - - 29 16 - - W 978,5 10 0,0
13.12.2019 11:00:00 6,6 4,8 - - 28 15 - - W 978,0 10 0,0
13.12.2019 10:00:00 5,8 4,4 - - 22 12 - - W 977,2 10 0,0
13.12.2019 09:00:00 5,2 4,0 6,2 7,9 24 13 - - W 975,9 10 0,0
13.12.2019 08:00:00 4,9 3,9 - - 18 10 - - W 974,7 10 0,0
13.12.2019 07:00:00 5,6 4,7 - - 18 10 - - W 973,4 8 0,0
13.12.2019 06:00:00 5,7 5,1 - - 18 10 - - WNW 972,1 5 0,0
13.12.2019 05:00:00 6,1 5,9 - - 11 6 - - W 970,9 5 0,0
13.12.2019 04:00:00 6,1 5,8 - - 5 3 - - SW 970,4 6 0,0
13.12.2019 03:00:00 5,9 5,6 - - 8 4 - - SW 970,2 8 0,0
13.12.2019 02:00:00 5,8 5,5 - - 9 5 - - S 970,0 10 0,0
13.12.2019 01:00:00 6,2 5,7 - - 13 7 - - SSW 970,5 10 0,0
13.12.2019 00:00:00 6,4 5,8 - - 15 8 - - SSW 971,2 10 0,0
12.12.2019 23:00:00 6,6 6,0 - - 18 10 - - SW 972,0 10 0,0
12.12.2019 22:00:00 6,4 5,9 - - 15 8 - - SW 972,9 10 0,0
12.12.2019 21:00:00 7,2 6,8 - - 18 10 - - SW 973,9 10 1,6
12.12.2019 20:00:00 7,1 6,5 - - 26 14 - - S 974,7 5 2,6
12.12.2019 19:00:00 7,0 6,4 - - 29 16 46 25 SSE 976,1 5 1,4
12.12.2019 18:00:00 7,3 6,6 - - 29 16 46 25 SSE 977,7 6 1,4
12.12.2019 17:00:00 7,4 6,7 - - 35 19 52 28 SSE 979,2 6 0,6
12.12.2019 16:00:00 7,3 6,6 - - 31 17 46 25 SSE 980,7 10 0,2
12.12.2019 15:00:00 6,6 6,1 - - 29 16 55 30 SSE 982,3 10 1,0
12.12.2019 14:00:00 6,2 5,4 - - 35 19 52 28 SSE 984,3 7 0,4
12.12.2019 13:00:00 5,8 5,0 - - 31 17 - - SE 986,2 8 1,8
12.12.2019 12:00:00 4,3 3,7 - - 26 14 - - SSE 989,2 10 0,4
12.12.2019 11:00:00 3,4 2,2 - - 21 11 - - SE 991,6 8 0,2
12.12.2019 10:00:00 2,4 1,3 - - 21 11 - - SSE 993,5 10 0,0
12.12.2019 09:00:00 1,5 0,3 6,2 8,0 21 11 - - SSE 994,8 10 0,0
12.12.2019 08:00:00 1,0 0,2 - - 15 8 - - SE 996,3 10 0,0
12.12.2019 07:00:00 0,3 -0,5 - - 13 7 - - S 997,5 10 0,0
12.12.2019 06:00:00 -0,2 -0,7 - - 11 6 - - S 998,1 15 0,0
12.12.2019 05:00:00 -0,8 -1,2 - - 15 8 - - S 999,1 10 0,0
12.12.2019 04:00:00 -0,5 -0,8 - - 13 7 - - S 999,9 10 0,0
12.12.2019 03:00:00 -0,9 -1,3 - - 9 5 - - SSW 1000,5 10 0,0
12.12.2019 02:00:00 -0,6 -1,0 - - 9 5 - - SSW 1000,9 12 0,0
12.12.2019 01:00:00 -0,4 -0,7 - - 11 6 - - SW 1001,3 14 0,0
12.12.2019 00:00:00 -0,1 -0,5 - - 9 5 - - SSW 1001,4 10 0,0
11.12.2019 23:00:00 0,5 0,1 - - 13 7 - - WSW 1001,4 10 0,0
11.12.2019 22:00:00 0,7 0,3 - - 13 7 - - WSW 1001,4 10 0,0
11.12.2019 21:00:00 1,2 0,6 - - 15 8 - - WSW 1001,1 10 0,0
11.12.2019 20:00:00 2,4 1,7 - - 15 8 - - W 1000,9 10 0,0
11.12.2019 19:00:00 3,7 2,7 - - 18 10 - - WSW 1000,4 20 0,0
11.12.2019 18:00:00 4,9 3,9 - - 11 6 - - SSW 1000,0 10 0,8
11.12.2019 17:00:00 5,7 3,7 - - 15 8 - - S 999,7 10 0,0
11.12.2019 16:00:00 5,0 3,1 - - 11 6 - - S 999,9 10 0,0
11.12.2019 15:00:00 6,0 3,8 - - 15 8 - - S 1000,2 10 0,0
11.12.2019 14:00:00 7,0 3,8 - - 21 11 - - SSW 1000,9 10 0,0
11.12.2019 13:00:00 6,7 3,8 - - 24 13 - - SSW 1001,5 10 0,0
11.12.2019 12:00:00 6,3 3,7 - - 22 12 - - SSW 1002,8 10 0,0
11.12.2019 11:00:00 5,3 3,3 - - 18 10 - - S 1003,8 10 0,0
11.12.2019 10:00:00 3,7 2,3 - - 16 9 - - S 1004,8 10 0,0
11.12.2019 09:00:00 1,8 1,2 6,7 8,0 15 8 - - S 1005,3 10 0,0
11.12.2019 08:00:00 0,9 0,2 - - 11 6 - - S 1005,4 10 0,0
11.12.2019 07:00:00 1,5 0,6 - - 13 7 - - SSW 1005,7 10 0,0
11.12.2019 06:00:00 1,9 0,7 - - 11 6 - - SSW 1006,0 10 0,0
11.12.2019 05:00:00 2,3 1,2 - - 11 6 - - SW 1006,1 20 0,0
11.12.2019 04:00:00 2,9 1,7 - - 13 7 - - SSW 1006,7 10 0,0
11.12.2019 03:00:00 4,0 2,3 - - 18 10 - - SW 1006,8 15 0,0
11.12.2019 02:00:00 4,7 2,6 - - 21 11 - - SW 1006,6 21 0,0
11.12.2019 01:00:00 5,5 3,2 - - 21 11 - - SW 1005,9 26 0,0
11.12.2019 00:00:00 6,6 3,7 - - 22 12 - - WSW 1005,4 10 0,0
10.12.2019 23:00:00 7,9 4,9 - - 28 15 - - WSW 1004,6 10 0,0
10.12.2019 22:00:00 8,5 6,5 - - 24 13 - - WSW 1003,5 10 0,0
10.12.2019 21:00:00 9,1 7,4 - - 29 16 70 38 WSW 1002,1 10 1,8
10.12.2019 20:00:00 10,9 9,4 - - 48 26 76 41 S 999,6 10 0,0
10.12.2019 19:00:00 11,3 8,7 - - 54 29 81 44 S 1000,1 10 0,0
10.12.2019 18:00:00 10,9 8,4 - - 52 28 72 39 S 1000,9 10 0,0
10.12.2019 17:00:00 10,3 8,0 - - 52 28 76 41 S 1001,9 15 0,0
10.12.2019 16:00:00 10,0 7,6 - - 48 26 74 40 S 1003,5 10 0,0
10.12.2019 15:00:00 9,6 7,2 - - 46 25 65 35 S 1005,1 10 0,0
10.12.2019 14:00:00 9,1 7,0 - - 46 25 67 36 S 1007,0 10 0,0
10.12.2019 13:00:00 8,2 6,8 - - 37 20 54 29 S 1008,9 10 0,4
10.12.2019 12:00:00 7,2 5,9 - - 35 19 52 28 S 1010,9 10 0,4
10.12.2019 11:00:00 7,2 4,8 - - 37 20 54 29 S 1012,5 12 0,0
10.12.2019 10:00:00 6,4 3,9 - - 37 20 50 27 S 1014,8 10 0,0
10.12.2019 09:00:00 5,5 3,0 6,7 8,0 34 18 46 25 S 1016,2 10 0,0
10.12.2019 08:00:00 4,1 1,8 - - 28 15 - - S 1017,4 18 0,0
10.12.2019 07:00:00 3,3 0,9 - - 26 14 - - S 1018,7 10 0,0
10.12.2019 06:00:00 2,0 0,5 - - 21 11 - - S 1020,0 10 0,0
10.12.2019 05:00:00 1,0 0,1 - - 13 7 - - S 1021,1 10 0,0
10.12.2019 04:00:00 0,6 0,1 - - 11 6 - - S 1022,0 10 0,0
10.12.2019 03:00:00 -0,6 -1,2 - - 9 5 - - S 1022,7 10 0,0
10.12.2019 02:00:00 -1,0 -1,6 - - 11 6 - - S 1023,0 13 0,0
10.12.2019 01:00:00 -1,0 -1,7 - - 8 4 - - SSE 1023,6 15 0,0
10.12.2019 00:00:00 -1,1 -2,2 - - 11 6 - - S 1024,0 10 0,0
09.12.2019 23:00:00 -0,3 -1,7 - - 9 5 - - S 1023,9 10 0,0
09.12.2019 22:00:00 -0,1 -2,2 - - 9 5 - - S 1023,4 10 0,0
09.12.2019 21:00:00 0,6 -2,3 - - 2 1 - - S 1023,2 10 0,0
09.12.2019 20:00:00 1,6 -1,9 - - 13 7 - - W 1022,3 10 0,0
09.12.2019 19:00:00 3,8 -1,0 - - 16 9 - - WNW 1021,0 10 0,0
09.12.2019 18:00:00 4,2 -0,9 - - 21 11 - - WNW 1020,0 10 0,0
09.12.2019 17:00:00 4,6 -0,6 - - 24 13 - - WNW 1018,9 10 0,0
09.12.2019 16:00:00 5,1 0,4 - - 22 12 - - WNW 1017,4 10 0,0
09.12.2019 15:00:00 6,3 0,7 - - 28 15 46 25 NW 1015,3 20 0,0
09.12.2019 14:00:00 7,1 1,2 - - 31 17 55 30 NW 1013,6 10 0,0
09.12.2019 13:00:00 7,0 1,2 - - 37 20 59 32 NW 1011,5 10 0,0
09.12.2019 12:00:00 7,0 1,6 - - 39 21 59 32 NW 1009,5 10 0,0
09.12.2019 11:00:00 6,8 1,5 - - 39 21 59 32 NW 1007,2 10 0,0
09.12.2019 10:00:00 6,5 1,9 - - 42 23 65 35 NW 1004,9 10 0,0
09.12.2019 09:00:00 6,7 2,4 7,2 8,0 41 22 65 35 NW 1002,2 10 0,0
09.12.2019 08:00:00 6,6 3,0 - - 35 19 52 28 NW 999,3 10 0,0
09.12.2019 07:00:00 6,4 4,1 - - 29 16 46 25 WNW 997,2 10 0,0
09.12.2019 06:00:00 5,9 4,5 - - 21 11 - - W 994,5 10 0,2
09.12.2019 05:00:00 5,5 3,9 - - 18 10 - - W 992,8 10 0,0
09.12.2019 04:00:00 5,2 3,8 - - 18 10 - - WSW 991,2 10 0,0
09.12.2019 03:00:00 5,0 3,5 - - 18 10 - - WSW 990,2 10 0,0
09.12.2019 02:00:00 4,9 3,2 - - 21 11 - - SW 989,5 24 0,0
09.12.2019 01:00:00 4,9 2,7 - - 18 10 46 25 SW 989,6 24 0,0
09.12.2019 00:00:00 5,3 2,7 - - 34 18 52 28 SW 989,4 10 0,0
08.12.2019 23:00:00 5,3 2,9 - - 35 19 52 28 SW 989,5 10 0,0
08.12.2019 22:00:00 5,2 3,2 - - 31 17 46 25 SSW 991,0 10 0,0
08.12.2019 21:00:00 5,4 2,9 - - 31 17 46 25 SW 991,8 10 0,0
08.12.2019 20:00:00 5,4 2,8 - - 31 17 50 27 SW 992,5 10 0,0
08.12.2019 19:00:00 5,7 3,5 - - 35 19 46 25 SW 993,2 10 0,0
08.12.2019 18:00:00 5,9 3,5 - - 31 17 - - SW 993,8 26 0,0
08.12.2019 17:00:00 6,2 4,0 - - 29 16 67 36 SW 994,0 10 0,4
08.12.2019 16:00:00 7,7 3,3 - - 29 16 - - SW 994,4 23 0,0
08.12.2019 15:00:00 8,4 2,4 - - 35 19 61 33 WSW 994,8 26 0,0
08.12.2019 14:00:00 9,2 4,0 - - 39 21 59 32 WSW 995,2 22 0,0
08.12.2019 13:00:00 9,9 4,6 - - 39 21 54 29 WSW 995,7 21 0,0
08.12.2019 12:00:00 9,5 4,7 - - 37 20 50 27 WSW 996,6 22 0,0
08.12.2019 11:00:00 9,2 4,5 - - 31 17 48 26 WSW 997,1 22 0,0
08.12.2019 10:00:00 8,0 5,1 - - 31 17 50 27 SW 997,4 25 0,0
08.12.2019 09:00:00 8,1 5,2 7,4 8,0 24 13 48 26 WSW 997,1 26 0,0
08.12.2019 08:00:00 8,8 4,8 - - 35 19 52 28 WSW 996,4 26 0,0
08.12.2019 07:00:00 9,4 5,0 - - 41 22 70 38 WSW 995,5 26 0,6
08.12.2019 06:00:00 11,6 10,0 - - 39 21 63 34 SW 994,6 10 0,2
08.12.2019 05:00:00 11,0 9,8 - - 31 17 52 28 SSW 994,7 24 0,0

tt = Température de l'air
td = dewpoint
tt -20cm = Température de l'air -20cm
tt -100cm = Température de l'air -100cm
ff = Vitesse du vent
fx = gusts
dd = Direction du vent
ppp = reduced air pressure
vv = visibility
rr = Quantités de précipitations

stations d'obs. à proximité